QPF
0.00 0.00 0.00 0.00 0.00 0.00 0.00 0.00 0.00 0.00 0.01 0.02 0.02 0.03 0.04 0.07 0.10 0.02 0.00 0.03 0.06 0.03 0.00 0.00 0.00 0.00 0.00 0.00 0.00 0.00 0.00 0.00 0.00 0.00 0.00 0.00 0.00 0.00 0.00 0.00 0.00 0.00 0.00
0.01 0.01 0.01 0.01 0.00 0.00 0.00 0.00 0.01 0.01 0.01 0.01 0.03 0.01 0.01 0.01 0.00 0.00 0.00 0.00 0.00 0.00 0.00 0.00 0.00 0.00 0.00 0.00 0.00 0.00 0.00 0.00 0.00 0.00 0.00 0.00 0.00 0.00 0.00 0.00 0.00 0.00 0.00
0.00 0.00 0.00 0.00 0.00 0.01 0.01 0.01 0.01 0.00 0.00 0.00 0.00 0.01 0.01 0.00 0.00 0.00 0.00 0.00 0.00 0.00 0.00 0.00 0.00 0.00 0.00 0.00 0.00 0.00 0.00 0.00 0.00 0.00 0.00 0.00 0.00 0.00 0.00 0.00 0.00 0.00 0.00
0.00 0.00 0.00 0.00 0.00 0.00 0.00 0.00 0.00 0.00 0.00 0.00 0.00 0.00 0.00 0.00 0.00 0.00 0.00 0.00 0.00 0.00 0.00 0.00 0.00 0.00 0.00 0.00 0.00 0.00 0.00 0.00 0.00 0.00 0.00 0.00 0.00 0.00 0.00 0.00 0.00 0.00 0.00
0.00 0.00 0.00 0.00 0.00 0.00 0.00 0.00 0.00 0.00 0.00 0.00 0.00 0.00 0.00 0.00 0.00 0.00 0.00 0.00 0.00 0.00 0.00 0.00 0.00 0.00 0.00 0.00 0.00 0.00 0.00 0.00 0.00 0.00 0.00 0.00 0.00 0.00 0.00 0.00 0.00 0.00 0.00
0.00 0.00 0.00 0.00 0.00 0.00 0.00 0.00 0.00 0.00 0.00 0.00 0.00 0.00 0.00 0.00 0.00 0.00 0.00 0.00 0.00 0.00 0.00 0.00 0.00 0.00 0.00 0.00 0.00 0.00 0.00 0.00 0.00 0.00 0.00 0.00 0.00 0.00 0.00 0.00 0.00 0.00 0.00
0.00 0.00 0.00 0.00 0.00 0.00 0.00 0.00 0.00 0.00 0.00 0.00 0.00 0.00 0.00 0.00 0.00 0.00 0.00 0.00 0.00 0.00 0.00 0.00 0.00 0.00 0.00 0.00 0.00 0.00 0.00 0.00 0.00 0.00 0.00 0.00 0.00 0.00 0.00 0.00 0.00 0.00 0.00
0.00 0.00 0.00 0.00 0.00 0.00 0.00 0.00 0.00 0.00 0.00 0.00 0.00 0.00 0.00 0.00 0.00 0.00 0.00 0.00 0.00 0.00 0.00 0.00 0.00 0.00 0.00 0.00 0.00 0.00 0.00 0.00 0.00 0.00 0.00 0.00 0.00 0.00 0.00 0.00 0.00 0.00 0.00
0.00 0.01 0.00 0.00 0.00 0.00 0.00 0.00 0.00 0.00 0.00 0.00 0.00 0.00 0.00 0.00 0.00 0.00 0.00 0.00 0.00 0.00 0.00 0.00 0.00 0.00 0.00 0.00 0.00 0.00 0.00 0.00 0.00 0.00 0.00 0.00 0.00 0.00 0.00 0.00 0.01 0.02 0.02
0.00 0.00 0.00 0.00 0.00 0.00 0.00 0.00 0.00 0.00 0.00 0.00 0.00 0.00 0.00 0.00 0.00 0.00 0.00 0.00 0.00 0.00 0.00 0.00 0.00 0.00 0.00 0.00 0.00 0.00 0.00 0.00 0.00 0.00 0.00 0.00 0.00 0.00 0.00 0.00 0.01 0.01 0.01
0.02 0.01 0.00 0.00 0.00 0.00 0.00 0.00 0.00 0.00 0.00 0.00 0.00 0.00 0.00 0.00 0.00 0.00 0.00 0.00 0.00 0.00 0.00 0.00 0.00 0.00 0.00 0.00 0.00 0.00 0.00 0.00 0.00 0.00 0.00 0.00 0.00 0.00 0.00 0.02 0.03 0.03 0.03
0.11 0.04 0.01 0.00 0.00 0.00 0.00 0.00 0.00 0.00 0.00 0.00 0.00 0.00 0.00 0.00 0.00 0.00 0.00 0.00 0.00 0.00 0.00 0.00 0.00 0.00 0.00 0.00 0.00 0.00 0.00 0.00 0.00 0.00 0.00 0.00 0.00 0.00 0.00 0.00 0.01 0.02 0.02
0.06 0.02 0.00 0.00 0.00 0.00 0.00 0.00 0.00 0.00 0.00 0.00 0.00 0.00 0.00 0.00 0.00 0.00 0.00 0.00 0.00 0.00 0.00 0.00 0.00 0.00 0.00 0.00 0.00 0.00 0.00 0.00 0.00 0.00 0.00 0.00 0.00 0.00 0.00 0.00 0.01 0.01 0.01
0.00 0.00 0.01 0.00 0.00 0.00 0.00 0.00 0.00 0.00 0.00 0.00 0.00 0.00 0.00 0.00 0.00 0.00 0.00 0.00 0.00 0.00 0.00 0.00 0.00 0.00 0.00 0.00 0.00 0.00 0.00 0.00 0.00 0.00 0.00 0.00 0.00 0.00 0.00 0.01 0.01 0.01 0.00
0.01 0.01 0.00 0.00 0.00 0.00 0.00 0.00 0.00 0.00 0.00 0.00 0.00 0.00 0.00 0.00 0.00 0.00 0.00 0.00 0.00 0.00 0.00 0.00 0.00 0.00 0.00 0.00 0.00 0.00 0.00 0.00 0.00 0.00 0.00 0.00 0.00 0.00 0.01 0.01 0.01 0.03 0.01
0.03 0.00 0.00 0.00 0.00 0.00 0.00 0.00 0.00 0.00 0.00 0.00 0.00 0.00 0.00 0.00 0.00 0.00 0.00 0.00 0.00 0.00 0.00 0.00 0.00 0.00 0.00 0.00 0.00 0.00 0.00 0.00 0.00 0.00 0.00 0.00 0.00 0.00 0.00 0.00 0.00 0.01 0.01
0.00 0.00 0.00 0.00 0.00 0.00 0.00 0.00 0.00 0.00 0.00 0.00 0.00 0.00 0.00 0.00 0.00 0.00 0.00 0.00 0.00 0.00 0.00 0.00 0.00 0.00 0.00 0.00 0.00 0.00 0.00 0.00 0.00 0.00 0.00 0.00 0.00 0.00 0.01 0.00 0.00 0.01 0.01
0.00 0.00 0.00 0.00 0.00 0.00 0.00 0.00 0.00 0.00 0.00 0.00 0.00 0.00 0.00 0.00 0.00 0.00 0.00 0.00 0.00 0.00 0.00 0.00 0.00 0.00 0.00 0.00 0.00 0.00 0.00 0.00 0.00 0.00 0.00 0.00 0.00 0.00 0.00 0.00 0.00 0.00 0.04
0.00 0.00 0.00 0.00 0.00 0.00 0.00 0.00 0.00 0.00 0.00 0.00 0.00 0.00 0.00 0.00 0.00 0.00 0.00 0.00 0.00 0.00 0.00 0.00 0.00 0.00 0.00 0.00 0.00 0.00 0.00 0.00 0.00 0.00 0.00 0.00 0.00 0.00 0.00 0.01 0.00 0.00 0.02
0.00 0.00 0.00 0.00 0.00 0.00 0.00 0.00 0.00 0.00 0.00 0.00 0.00 0.00 0.00 0.00 0.00 0.00 0.00 0.00 0.00 0.00 0.00 0.00 0.00 0.00 0.00 0.00 0.00 0.00 0.00 0.00 0.00 0.00 0.00 0.00 0.00 0.00 0.00 0.01 0.01 0.00 0.00
0.00 0.00 0.00 0.00 0.00 0.00 0.00 0.00 0.00 0.00 0.00 0.00 0.00 0.00 0.00 0.00 0.00 0.00 0.00 0.00 0.00 0.00 0.00 0.00 0.00 0.00 0.00 0.00 0.00 0.00 0.00 0.00 0.00 0.00 0.00 0.00 0.00 0.00 0.00 0.02 0.01 0.00 0.00
0.00 0.00 0.00 0.00 0.00 0.00 0.00 0.00 0.00 0.00 0.00 0.00 0.00 0.00 0.00 0.00 0.00 0.00 0.00 0.00 0.00 0.00 0.00 0.00 0.00 0.00 0.00 0.00 0.00 0.00 0.00 0.00 0.00 0.00 0.00 0.00 0.00 0.00 0.00 0.01 0.01 0.00 0.00
0.00 0.00 0.00 0.00 0.00 0.00 0.00 0.00 0.00 0.00 0.00 0.00 0.00 0.00 0.00 0.00 0.00 0.00 0.00 0.00 0.00 0.00 0.00 0.00 0.00 0.00 0.00 0.00 0.00 0.00 0.00 0.00 0.00 0.00 0.00 0.00 0.00 0.00 0.00 0.00 0.00 0.00 0.00
0.00 0.00 0.00 0.00 0.00 0.00 0.00 0.00 0.00 0.00 0.00 0.00 0.00 0.00 0.00 0.00 0.00 0.00 0.00 0.00 0.00 0.00 0.00 0.00 0.00 0.00 0.00 0.00 0.00 0.00 0.00 0.00 0.00 0.00 0.00 0.00 0.00 0.00 0.00 0.01 0.01 0.00 0.00
0.00 0.00 0.00 0.00 0.00 0.00 0.00 0.00 0.00 0.00 0.00 0.00 0.00 0.00 0.00 0.00 0.00 0.00 0.00 0.00 0.00 0.00 0.00 0.00 0.00 0.00 0.00 0.00 0.00 0.00 0.00 0.00 0.00 0.00 0.00 0.00 0.00 0.00 0.00 0.02 0.04 0.02 0.00
0.00 0.00 0.00 0.00 0.00 0.00 0.00 0.00 0.00 0.00 0.00 0.00 0.00 0.00 0.00 0.00 0.00 0.00 0.00 0.00 0.00 0.00 0.00 0.00 0.00 0.00 0.00 0.00 0.00 0.00 0.00 0.00 0.00 0.00 0.00 0.00 0.00 0.00 0.00 0.00 0.03 0.03 0.02
MSLP
1012.37 1012.53 1012.70 1013.00 1013.16 1013.27 1013.47 1013.47 1013.48 1013.54 1013.57 1013.72 1013.97 1014.06 1013.99 1014.16 1014.42 1014.55 1014.54 1014.82 1015.35 1015.84 1016.09 1016.37 1016.37 1016.60 1016.86 1016.68 1016.99 1017.06 1017.00 1017.21 1017.04 1017.00 1017.49 1017.45 1017.34 1017.06 1017.16 1017.12 1017.01 1016.69 1016.53
1013.14 1013.19 1013.28 1013.42 1013.60 1013.68 1013.85 1013.90 1014.02 1014.16 1014.45 1014.65 1014.81 1014.72 1014.89 1015.03 1015.41 1015.20 1015.78 1015.75 1016.32 1016.21 1016.61 1016.69 1017.06 1017.23 1017.24 1017.21 1017.10 1017.25 1017.46 1017.36 1017.14 1017.09 1016.96 1016.85 1017.03 1017.13 1017.21 1017.46 1016.79 1016.68 1016.72
1013.86 1013.79 1013.82 1014.01 1014.22 1014.43 1014.56 1014.65 1014.89 1015.01 1015.05 1015.27 1015.20 1015.59 1015.95 1016.14 1016.37 1016.07 1016.77 1016.83 1016.96 1016.83 1016.87 1017.03 1017.24 1017.13 1017.15 1017.22 1017.23 1017.29 1017.36 1017.34 1017.41 1017.16 1016.52 1017.12 1017.09 1017.12 1016.91 1016.73 1016.63 1016.55 1016.28
1014.28 1014.40 1014.53 1014.80 1015.04 1015.26 1015.53 1015.71 1015.71 1015.73 1015.86 1016.18 1016.24 1016.62 1016.85 1016.94 1016.90 1017.01 1017.33 1017.34 1017.39 1017.63 1017.60 1017.65 1017.45 1017.48 1017.48 1017.49 1017.57 1017.70 1017.64 1017.26 1017.28 1016.81 1016.63 1016.87 1016.91 1016.83 1016.87 1016.37 1016.02 1015.83 1015.65
1015.12 1015.34 1015.34 1015.61 1015.83 1016.16 1016.38 1016.58 1016.73 1016.72 1016.95 1016.97 1016.87 1017.18 1017.42 1017.60 1017.71 1017.66 1017.86 1017.91 1017.80 1017.91 1017.94 1017.95 1018.32 1018.43 1018.53 1018.43 1017.89 1018.02 1017.91 1017.49 1017.34 1017.14 1017.13 1017.25 1016.84 1016.48 1016.41 1016.25 1016.08 1015.81 1015.49
1015.83 1016.15 1016.15 1016.09 1016.46 1016.88 1017.07 1017.26 1017.35 1017.54 1017.62 1017.45 1017.78 1018.09 1018.27 1018.62 1018.92 1018.65 1018.49 1018.49 1018.56 1018.54 1018.61 1018.72 1018.82 1019.06 1019.02 1019.06 1019.12 1019.06 1019.03 1018.61 1018.25 1017.89 1017.48 1017.28 1017.13 1017.08 1016.70 1016.32 1016.19 1015.58 1014.91
1016.54 1016.82 1016.81 1016.78 1017.07 1017.51 1017.88 1018.01 1018.16 1018.24 1018.33 1018.72 1019.02 1019.14 1019.36 1019.77 1019.75 1019.72 1019.42 1019.30 1019.34 1019.39 1019.45 1019.35 1019.16 1019.46 1019.51 1019.36 1019.33 1019.19 1019.14 1019.19 1019.08 1018.67 1018.31 1017.96 1017.69 1017.32 1017.16 1016.69 1016.19 1015.95 1015.20
1017.40 1017.48 1017.55 1017.50 1017.73 1018.24 1018.51 1018.70 1018.93 1019.14 1019.40 1019.57 1019.84 1020.15 1020.27 1020.64 1020.72 1020.59 1020.21 1020.03 1019.94 1020.07 1020.19 1020.27 1020.23 1020.26 1020.41 1020.03 1019.61 1019.41 1019.24 1019.04 1019.06 1018.88 1018.66 1018.16 1017.73 1017.48 1017.32 1016.78 1016.39 1015.84 1015.45
1018.02 1018.05 1018.09 1018.15 1018.34 1018.73 1019.03 1019.52 1019.94 1019.91 1020.16 1020.25 1020.41 1020.73 1020.94 1021.42 1021.50 1021.30 1020.86 1020.60 1020.53 1020.70 1020.90 1021.21 1021.06 1021.10 1021.14 1020.71 1020.11 1019.79 1019.35 1018.91 1018.61 1018.60 1018.47 1018.28 1018.06 1017.87 1017.64 1016.72 1015.59 1015.16 1014.32
1018.76 1018.47 1018.76 1018.90 1018.83 1019.14 1019.52 1019.99 1020.45 1020.78 1021.07 1021.07 1021.18 1021.35 1021.65 1021.99 1022.24 1021.91 1021.47 1020.94 1020.96 1020.86 1021.20 1021.40 1021.76 1021.73 1021.48 1021.25 1020.67 1020.17 1019.62 1019.31 1018.78 1018.33 1017.81 1017.30 1017.15 1016.63 1016.86 1016.52 1015.66 1015.12 1014.51
1019.43 1019.38 1019.44 1019.52 1019.60 1019.91 1020.23 1020.66 1021.04 1021.23 1021.43 1021.49 1021.70 1021.76 1022.01 1022.25 1022.52 1022.39 1022.29 1021.97 1021.52 1021.28 1021.30 1021.35 1021.75 1022.06 1021.91 1021.68 1021.39 1020.69 1020.48 1020.03 1018.93 1018.20 1017.59 1017.11 1016.67 1016.21 1015.82 1015.72 1015.66 1015.42 1014.79
1020.10 1020.05 1020.02 1020.09 1020.17 1020.52 1020.81 1021.22 1021.45 1021.68 1021.75 1021.85 1021.73 1021.92 1022.17 1022.29 1022.72 1022.54 1022.89 1022.70 1022.48 1021.92 1021.76 1021.81 1022.11 1022.37 1022.01 1021.72 1021.41 1021.18 1020.58 1019.71 1018.96 1018.41 1017.72 1017.47 1017.23 1016.89 1016.58 1016.29 1015.64 1014.88 1014.64
1020.48 1020.56 1020.73 1020.73 1020.86 1021.04 1021.15 1021.57 1021.89 1021.97 1021.92 1021.95 1021.83 1021.91 1022.15 1022.31 1022.34 1022.59 1022.71 1022.74 1022.60 1022.47 1022.17 1022.38 1022.37 1022.24 1021.63 1021.27 1021.39 1021.00 1020.22 1019.57 1019.26 1018.71 1018.17 1017.97 1017.68 1017.21 1016.56 1015.89 1015.17 1014.52 1013.96
1020.82 1020.92 1020.97 1020.97 1021.32 1021.58 1021.63 1021.92 1022.15 1022.18 1022.19 1022.27 1022.22 1022.14 1022.24 1022.36 1022.39 1022.36 1022.35 1022.31 1022.63 1022.47 1022.26 1022.08 1022.10 1022.26 1021.78 1021.36 1020.86 1020.50 1020.14 1019.89 1019.69 1019.15 1018.52 1018.19 1017.55 1016.97 1016.31 1015.70 1015.02 1014.20 1013.48
1020.94 1021.29 1021.59 1021.59 1021.59 1021.88 1022.24 1022.54 1022.84 1022.87 1022.97 1022.76 1022.55 1022.48 1022.46 1022.51 1022.82 1023.41 1023.46 1022.87 1022.51 1022.56 1022.38 1022.13 1021.73 1021.61 1021.29 1021.00 1020.77 1020.49 1020.09 1020.11 1019.75 1019.42 1018.83 1018.24 1017.44 1016.99 1016.31 1015.67 1014.87 1013.83 1013.35
1020.54 1021.29 1021.64 1021.83 1021.77 1021.58 1022.04 1023.04 1023.66 1023.62 1023.44 1023.52 1023.30 1023.35 1023.08 1023.18 1023.34 1023.50 1023.44 1023.06 1022.88 1022.90 1022.67 1022.18 1021.83 1021.70 1021.48 1021.20 1020.84 1020.41 1020.06 1020.26 1020.07 1019.64 1019.03 1018.46 1017.87 1017.15 1016.46 1015.69 1014.96 1014.13 1013.55
1020.78 1021.34 1021.66 1021.80 1021.79 1021.70 1022.07 1022.37 1022.80 1023.68 1023.84 1023.91 1023.91 1023.99 1023.91 1023.90 1023.62 1023.45 1022.99 1023.10 1023.05 1022.83 1022.40 1022.11 1021.98 1021.89 1021.70 1021.40 1021.01 1020.62 1020.28 1020.44 1020.38 1019.82 1019.29 1018.72 1018.08 1017.41 1016.37 1015.89 1015.33 1014.66 1014.09
1021.02 1021.59 1021.77 1021.87 1021.85 1021.77 1022.17 1022.50 1022.73 1022.86 1022.99 1023.50 1024.29 1024.28 1024.42 1024.21 1023.75 1023.30 1023.09 1022.95 1023.12 1022.95 1022.24 1022.16 1022.11 1022.11 1021.96 1021.68 1021.30 1020.81 1020.47 1020.43 1020.38 1019.89 1019.42 1018.91 1018.18 1017.81 1016.95 1016.00 1015.57 1015.13 1014.62
1020.85 1021.15 1021.35 1021.45 1021.56 1021.96 1022.45 1022.50 1022.40 1022.67 1022.97 1023.24 1023.45 1023.87 1023.66 1023.95 1023.82 1023.61 1023.09 1023.08 1023.06 1022.87 1022.51 1022.35 1022.35 1022.24 1022.04 1021.80 1021.46 1021.00 1020.68 1020.46 1020.39 1019.87 1019.68 1019.18 1018.46 1017.85 1017.23 1016.29 1015.72 1015.53 1015.12
1021.33 1021.69 1021.65 1022.06 1022.15 1022.03 1022.05 1022.31 1022.52 1022.77 1023.01 1023.33 1023.60 1023.74 1023.53 1023.37 1023.43 1023.36 1023.31 1023.22 1023.01 1022.92 1022.86 1022.69 1022.61 1022.47 1022.24 1021.96 1021.60 1021.16 1020.68 1020.28 1020.37 1020.04 1019.89 1019.59 1018.81 1018.10 1017.36 1016.46 1015.79 1015.52 1015.39
1021.57 1021.77 1021.99 1021.70 1021.77 1021.98 1022.22 1022.45 1022.68 1022.92 1023.22 1023.61 1023.98 1024.58 1024.50 1023.76 1023.72 1023.65 1023.59 1023.53 1023.47 1023.38 1023.36 1023.31 1023.05 1022.62 1022.40 1022.17 1021.85 1021.45 1021.07 1020.65 1020.53 1020.40 1020.18 1019.67 1019.13 1018.55 1017.77 1016.71 1015.63 1015.64 1015.75
1021.36 1021.59 1021.68 1021.90 1022.26 1022.42 1022.64 1022.80 1022.95 1023.15 1023.41 1023.67 1023.95 1024.47 1024.61 1024.17 1024.06 1024.03 1024.14 1024.13 1024.20 1024.04 1023.91 1023.84 1023.15 1022.92 1022.85 1022.66 1022.42 1022.03 1021.55 1021.24 1021.22 1020.85 1020.15 1019.56 1019.11 1018.33 1017.88 1016.93 1016.23 1016.06 1015.70
1021.46 1021.67 1021.93 1022.26 1022.66 1023.18 1022.97 1023.10 1023.30 1023.50 1023.76 1024.03 1024.19 1024.32 1024.38 1024.35 1024.22 1024.31 1024.30 1024.31 1024.30 1024.14 1023.84 1023.69 1023.52 1023.26 1023.20 1023.13 1022.96 1022.68 1022.24 1021.83 1021.75 1021.73 1020.65 1019.80 1019.33 1018.35 1017.66 1017.28 1016.79 1016.31 1016.11
1021.50 1021.62 1021.86 1022.26 1022.62 1022.84 1023.21 1023.37 1023.74 1024.24 1024.05 1024.17 1024.36 1024.50 1024.57 1024.53 1024.40 1024.37 1024.20 1024.08 1023.99 1023.95 1024.01 1024.00 1024.01 1023.92 1023.70 1023.44 1023.10 1023.10 1023.01 1022.94 1022.29 1021.16 1020.39 1019.70 1019.01 1018.28 1017.06 1016.54 1016.58 1016.46 1016.20
1021.33 1021.58 1021.87 1022.28 1022.75 1022.92 1023.53 1023.42 1023.67 1023.98 1024.19 1024.30 1024.41 1024.53 1024.58 1024.53 1024.46 1024.43 1024.35 1024.28 1024.23 1024.15 1024.21 1024.23 1024.14 1024.07 1023.87 1023.77 1023.51 1023.41 1023.42 1023.12 1022.61 1021.98 1020.90 1019.75 1018.81 1017.97 1017.22 1016.59 1016.28 1015.80 1016.07
1021.51 1021.66 1021.90 1022.23 1022.59 1022.91 1023.11 1023.34 1023.60 1023.91 1024.07 1024.25 1024.41 1024.51 1024.57 1024.54 1024.53 1024.47 1024.41 1024.41 1024.34 1024.33 1024.42 1024.28 1024.30 1024.28 1024.09 1023.71 1023.76 1023.95 1023.46 1022.94 1022.31 1021.75 1021.05 1019.59 1018.65 1018.06 1017.39 1016.81 1016.00 1015.91 1015.73
Thickness
5736 5731 5725 5718 5713 5709 5706 5703 5700 5697 5693 5687 5680 5675 5671 5665 5659 5655 5651 5646 5639 5631 5627 5623 5622 5617 5613 5614 5610 5607 5605 5599 5595 5593 5586 5583 5580 5580 5577 5575 5573 5576 5574
5721 5715 5710 5705 5700 5696 5690 5688 5686 5681 5675 5668 5663 5659 5654 5650 5643 5641 5632 5628 5620 5619 5613 5610 5604 5600 5597 5596 5595 5592 5586 5584 5582 5574 5575 5573 5568 5565 5561 5554 5557 5554 5552
5702 5699 5694 5689 5685 5679 5675 5671 5667 5663 5660 5654 5650 5644 5638 5633 5627 5625 5616 5611 5607 5604 5601 5597 5593 5592 5588 5585 5582 5579 5576 5572 5563 5561 5564 5555 5551 5546 5544 5542 5539 5536 5534
5688 5683 5678 5672 5667 5662 5657 5652 5648 5645 5641 5636 5632 5625 5620 5616 5613 5607 5601 5597 5592 5587 5585 5581 5580 5577 5574 5571 5567 5562 5559 5558 5553 5552 5548 5541 5535 5530 5526 5525 5524 5522 5519
5668 5664 5660 5656 5652 5645 5641 5635 5630 5627 5622 5620 5618 5612 5606 5601 5597 5594 5588 5583 5580 5575 5571 5568 5561 5556 5552 5548 5550 5544 5540 5539 5535 5530 5524 5518 5517 5516 5511 5509 5507 5505 5504
5653 5648 5646 5643 5637 5630 5625 5620 5616 5611 5607 5606 5600 5595 5590 5584 5575 5574 5574 5570 5565 5561 5556 5552 5547 5541 5537 5530 5525 5520 5515 5514 5512 5510 5509 5506 5501 5497 5497 5495 5492 5495 5497
5638 5633 5629 5628 5621 5615 5610 5605 5601 5597 5592 5586 5579 5575 5570 5564 5558 5556 5556 5553 5548 5543 5539 5535 5532 5525 5519 5515 5510 5506 5501 5495 5491 5491 5490 5487 5483 5482 5479 5478 5479 5478 5481
5622 5616 5613 5611 5606 5599 5594 5589 5585 5579 5573 5569 5564 5558 5554 5549 5543 5541 5541 5539 5535 5529 5522 5516 5513 5508 5501 5501 5500 5497 5493 5490 5485 5482 5479 5478 5475 5470 5467 5466 5466 5468 5468
5606 5602 5599 5595 5590 5584 5578 5572 5565 5563 5557 5555 5551 5545 5541 5535 5531 5527 5529 5526 5522 5515 5508 5502 5501 5496 5489 5489 5491 5488 5487 5485 5482 5478 5474 5469 5465 5459 5454 5457 5463 5463 5470
5591 5590 5585 5581 5579 5572 5566 5559 5553 5546 5541 5538 5535 5533 5527 5524 5519 5518 5518 5518 5513 5509 5502 5497 5490 5488 5485 5483 5483 5481 5480 5477 5475 5473 5471 5468 5462 5459 5452 5448 5450 5452 5456
5578 5576 5572 5568 5563 5558 5553 5546 5540 5535 5530 5529 5525 5523 5519 5516 5515 5510 5506 5508 5507 5504 5498 5495 5489 5480 5477 5474 5471 5473 5469 5466 5471 5472 5472 5468 5462 5457 5452 5447 5443 5442 5445
5565 5562 5560 5557 5553 5547 5542 5535 5530 5525 5524 5522 5521 5517 5513 5510 5507 5505 5498 5496 5494 5494 5490 5488 5482 5475 5473 5470 5469 5464 5464 5467 5469 5468 5468 5463 5455 5450 5444 5440 5439 5440 5439
5558 5554 5550 5547 5543 5538 5535 5529 5523 5522 5521 5518 5519 5515 5510 5508 5505 5500 5496 5493 5490 5487 5485 5479 5475 5472 5472 5471 5465 5463 5465 5467 5464 5464 5463 5457 5450 5446 5443 5441 5439 5438 5438
5549 5546 5543 5540 5533 5529 5527 5524 5520 5519 5518 5516 5514 5512 5509 5505 5503 5500 5497 5495 5488 5484 5481 5481 5476 5472 5469 5466 5467 5466 5464 5462 5458 5457 5458 5453 5450 5447 5444 5441 5438 5438 5439
5539 5536 5532 5530 5526 5521 5518 5518 5514 5515 5513 5514 5511 5510 5508 5504 5499 5489 5486 5491 5490 5484 5480 5479 5479 5474 5471 5467 5464 5462 5461 5457 5455 5453 5452 5451 5451 5446 5444 5441 5440 5444 5440
5539 5532 5526 5523 5520 5521 5518 5512 5505 5505 5505 5503 5503 5503 5503 5495 5490 5486 5483 5484 5481 5478 5477 5476 5474 5470 5466 5462 5460 5460 5459 5453 5450 5449 5449 5448 5446 5445 5443 5443 5442 5443 5443
5534 5526 5521 5520 5517 5518 5516 5516 5515 5504 5500 5499 5497 5495 5492 5489 5488 5485 5485 5481 5479 5476 5477 5475 5470 5466 5462 5460 5458 5457 5455 5449 5445 5446 5445 5445 5444 5444 5448 5444 5442 5442 5442
5530 5521 5519 5517 5515 5516 5513 5508 5509 5510 5509 5504 5492 5490 5486 5485 5486 5487 5483 5481 5477 5474 5476 5472 5468 5463 5460 5457 5455 5455 5453 5448 5443 5442 5441 5441 5443 5440 5442 5446 5443 5441 5441
5530 5525 5522 5520 5519 5514 5508 5508 5510 5506 5503 5499 5497 5491 5487 5485 5484 5483 5482 5480 5476 5474 5473 5470 5466 5462 5459 5457 5454 5453 5451 5448 5443 5443 5438 5437 5439 5440 5439 5444 5444 5437 5436
5526 5518 5519 5514 5513 5513 5512 5509 5507 5504 5501 5498 5494 5491 5490 5491 5488 5485 5482 5480 5478 5475 5471 5469 5465 5461 5458 5455 5453 5452 5452 5450 5443 5441 5436 5433 5435 5437 5439 5443 5445 5441 5436
5525 5522 5517 5520 5518 5515 5512 5510 5507 5504 5500 5495 5491 5483 5479 5488 5485 5483 5480 5477 5474 5471 5467 5464 5461 5460 5457 5454 5452 5450 5449 5448 5443 5439 5435 5433 5432 5431 5434 5440 5446 5442 5434
5529 5525 5523 5521 5516 5514 5511 5509 5506 5503 5499 5496 5492 5485 5480 5483 5482 5479 5475 5471 5467 5465 5463 5459 5459 5456 5453 5450 5447 5445 5445 5443 5439 5437 5437 5436 5433 5435 5432 5437 5441 5439 5438
5528 5525 5522 5518 5514 5507 5509 5506 5503 5499 5495 5491 5489 5487 5484 5483 5481 5477 5474 5470 5467 5465 5463 5459 5456 5453 5449 5445 5442 5439 5439 5438 5434 5431 5433 5434 5432 5436 5436 5433 5434 5436 5435
5527 5525 5522 5518 5514 5512 5508 5504 5498 5492 5493 5490 5488 5485 5483 5481 5480 5477 5474 5471 5469 5465 5461 5457 5453 5449 5446 5443 5441 5437 5434 5432 5432 5434 5435 5435 5436 5437 5444 5443 5438 5435 5435
5528 5524 5521 5516 5512 5510 5505 5502 5498 5494 5491 5489 5486 5484 5482 5480 5479 5476 5473 5470 5466 5463 5459 5455 5451 5448 5445 5442 5439 5436 5434 5434 5432 5432 5434 5436 5439 5442 5444 5445 5443 5443 5437
5524 5522 5519 5515 5511 5507 5504 5501 5497 5493 5490 5488 5485 5483 5480 5479 5476 5474 5471 5468 5465 5461 5457 5454 5450 5446 5444 5442 5438 5436 5436 5435 5434 5434 5434 5437 5441 5443 5444 5445 5448 5444 5441